Syracuse, NY

9:16 AM EST on December 07, 2019 (GMT -0500)
Syracuse Hancock International

Weather History for KSYR - October, 2019

Change the Weather History Date:

Thursday, October 17, 2019

  Actual Average Record
Temperature  
Mean Temperature 48 °F 50 °F  
Max Temperature 50 °F 60 °F 84 °F (1947)
Min Temperature 46 °F 41 °F 24 °F (1978)
Degree Days  
Heating Degree Days 17 15  
Month to date heating degree days 196 210  
Since 1 July heating degree days 271 377  
Cooling Degree Days 0 0  
Month to date cooling degree days 11 0  
Year to date cooling degree days 622 565  
Moisture  
Dew Point 45 °F    
Average Humidity 89    
Maximum Humidity 100    
Minimum Humidity 80    
Precipitation  
Precipitation 0.61 in 0.11 in 1.42 in (1942)
Month to date precipitation 3.37 1.91  
Year to date precipitation 37.50 30.19  
Snow  
Snow 0.00 in 0.00 in 0.30 in (1972)
Month to date snowfall 0.0 0.0  
Since 1 July snowfall T 0.0  
Since 1 September snowfall T 0.0  
Snow Depth 0.00 in    
Sea Level Pressure  
Sea Level Pressure 29.41 in    
Wind  
Wind Speed 11 mph ()    
Max Wind Speed 28 mph    
Max Gust Speed 37 mph    
Visibility 8.0 miles    
Events Rain    
T = Trace of Precipitation, MM = Missing Value Source: Averaged Metar Reports

Daily Weather History Graph

Daily Weather History Graph

Search for Another Location

Airport or City:

Astronomy

Oct. 17, 2019 Rise Set
Actual Time 7:20 AM EDT 6:18 PM EDT
Civil Twilight 6:51 AM EDT 6:47 PM EDT
Nautical Twilight 6:18 AM EDT 7:20 PM EDT
Astronomical Twilight 5:45 AM EDT 7:53 PM EDT
Moon 8:43 PM EDT (10/17) 10:54 AM EDT (10/17)
Length of Visible Light 11h 56m
Length of Day
10h 58m
Waning Gibbous, 87% of the Moon is Illuminated
Oct 17
Waning Gibbous
Oct 21
Last Quarter
Oct 27
New
Nov 4
First Quarter
Nov 12
Full

Hourly Weather History & Observations

Time (EDT) Temp. Windchill Dew Point Humidity Pressure Visibility Wind Dir Wind Speed Gust Speed Precip Events Conditions
12:26 AM 48.9 °F - 46.0 °F 90% 29.40 in 10.0 mi West 5.8 mph - N/A   Overcast
12:46 AM 48.9 °F - 46.0 °F 90% 29.41 in 10.0 mi West 5.8 mph - N/A   Overcast
12:54 AM 48.9 °F - 46.0 °F 90% 29.40 in 10.0 mi West 5.8 mph - N/A   Overcast
1:54 AM 48.0 °F - 45.0 °F 89% 29.38 in 10.0 mi West 10.4 mph - N/A   Overcast
2:38 AM 48.0 °F - 45.0 °F 89% 29.35 in 10.0 mi West 12.7 mph - N/A   Overcast
2:54 AM 48.0 °F - 44.1 °F 86% 29.34 in 10.0 mi West 13.8 mph - N/A   Overcast
3:54 AM 46.9 °F - 44.1 °F 90% 29.33 in 10.0 mi West 11.5 mph - N/A   Overcast
4:54 AM 46.9 °F - 44.1 °F 90% 29.31 in 10.0 mi West 6.9 mph - 0.00 in Rain Light Rain
5:01 AM 46.4 °F 41.5 °F 44.6 °F 93% 29.32 in 10.0 mi West 10.4 mph 17.3 mph N/A Rain Light Rain
5:54 AM 46.9 °F - 43.0 °F 86% 29.30 in 10.0 mi West 12.7 mph - 0.00 in   Overcast
5:56 AM 46.9 °F - 44.1 °F 90% 29.30 in 10.0 mi West 11.5 mph - N/A   Overcast
6:26 AM 46.0 °F 39.9 °F 43.0 °F 89% 29.29 in 10.0 mi West 13.8 mph - N/A   Overcast
6:54 AM 46.9 °F - 44.1 °F 90% 29.28 in 10.0 mi West 10.4 mph - 0.00 in   Overcast
7:54 AM 48.0 °F - 45.0 °F 89% 29.26 in 9.0 mi West 13.8 mph - 0.00 in Rain Light Rain
8:54 AM 48.0 °F - 46.0 °F 93% 29.26 in 6.0 mi West 12.7 mph - 0.01 in Rain Light Rain
9:01 AM 48.0 °F - 46.0 °F 93% 29.27 in 4.0 mi West 11.5 mph - 0.01 in Rain Rain
9:54 AM 50.0 °F - 46.0 °F 86% 29.26 in 6.0 mi West 17.3 mph - 0.09 in Rain Rain
10:54 AM 48.9 °F - 46.0 °F 90% 29.31 in 10.0 mi NW 12.7 mph - 0.08 in Rain Light Rain
11:54 AM 48.9 °F - 46.0 °F 90% 29.34 in 5.0 mi WNW 18.4 mph 26.5 mph 0.06 in Rain Light Rain
12:54 PM 50.0 °F - 46.0 °F 86% 29.36 in 8.0 mi WNW 18.4 mph 26.5 mph 0.01 in Rain Light Rain
1:54 PM 50.0 °F - 45.0 °F 83% 29.38 in 8.0 mi West 25.3 mph 34.5 mph 0.02 in Rain Light Rain
2:54 PM 48.9 °F - 44.1 °F 83% 29.42 in 10.0 mi West 15.0 mph 28.8 mph 0.04 in Rain Light Rain
3:22 PM 48.9 °F - 46.9 °F 93% 29.44 in 2.5 mi WNW 20.7 mph 28.8 mph 0.02 in Rain Rain
3:54 PM 48.9 °F - 48.0 °F 97% 29.46 in 2.5 mi West 17.3 mph 32.2 mph 0.11 in Rain Rain
4:54 PM 48.9 °F - 48.0 °F 97% 29.48 in 2.5 mi West 19.6 mph 24.2 mph 0.13 in Rain Light Rain
5:04 PM 48.9 °F - 48.0 °F 97% 29.49 in 3.0 mi West 16.1 mph 23.0 mph 0.01 in Rain Light Rain
5:54 PM 48.0 °F - 46.9 °F 96% 29.52 in 3.0 mi WNW 24.2 mph 32.2 mph 0.05 in Rain Light Rain
6:54 PM 48.0 °F - 46.0 °F 93% 29.57 in 3.0 mi WNW 16.1 mph - 0.00 in Rain Light Rain
7:54 PM 48.0 °F - 45.0 °F 89% 29.59 in 10.0 mi WNW 13.8 mph 23.0 mph 0.01 in   Overcast
8:54 PM 48.9 °F - 45.0 °F 86% 29.61 in 10.0 mi WNW 12.7 mph 19.6 mph N/A   Overcast
9:01 PM 48.9 °F - 45.0 °F 86% 29.62 in 10.0 mi WNW 17.3 mph 23.0 mph N/A   Overcast
9:54 PM 48.9 °F - 44.1 °F 83% 29.65 in 10.0 mi WNW 15.0 mph - N/A   Overcast
10:54 PM 48.0 °F - 43.0 °F 83% 29.67 in 10.0 mi WNW 13.8 mph - N/A   Overcast
11:54 PM 48.0 °F - 42.1 °F 80% 29.69 in 10.0 mi WNW 13.8 mph - 0.00 in Rain Light Rain